DW2363 Weather Reports


time (UTC)temp
C
wind
direction
speed
KPH
gust
KPH
rain 1hr
cm
rain 24hr
cm
rain mn
cm
humidity
%
barometer
mb
20260502212852 23 52 3.2 8.0 0.00 0.00 0.00 64 1012.8
20260502212352 23 100 3.2 8.0 0.00 0.00 0.00 65 1012.8
20260502211851 22 100 1.6 8.0 0.00 0.00 0.00 66 1012.9
20260502211351 22 177 1.6 4.8 0.00 0.00 0.00 69 1012.9
20260502210851 21 277 3.2 9.7 0.00 0.00 0.00 69 1013.0
20260502210351 21 264 3.2 9.7 0.00 0.00 0.00 69 1013.0
20260502205854 21 247 1.6 8.0 0.00 0.00 0.00 69 1013.1
20260502205848 21 209 1.6 6.4 0.00 0.00 0.00 69 1013.2
20260502204848 21 209 1.6 8.0 0.00 0.00 0.00 70 1013.2
20260502204348 21 209 1.6 8.0 0.00 0.00 0.00 68 1013.2
20260502203848 21 229 3.2 9.7 0.00 0.00 0.00 67 1013.2
20260502203354 22 162 4.8 14.5 0.00 0.00 0.00 65 1013.2
20260502203348 22 171 3.2 9.7 0.00 0.00 0.00 66 1013.1
20260502202348 22 220 6.4 14.5 0.00 0.00 0.00 65 1013.2
20260502201848 22 24 4.8 14.5 0.00 0.00 0.00 64 1013.2
20260502201353 21 5 6.4 12.9 0.00 0.00 0.00 67 1013.4
20260502201347 22 0 3.2 9.7 0.00 0.00 0.00 67 1013.2
20260502200346 21 9 8.0 14.5 0.00 0.00 0.00 68 1013.4
20260502195846 21 15 9.7 14.5 0.00 0.00 0.00 68 1013.5
20260502195346 21 5 8.0 14.5 0.00 0.00 0.00 67 1013.4
20260502194851 21 0 3.2 8.0 0.00 0.00 0.00 63 1013.7
20260502194845 21 5 4.8 12.9 0.00 0.00 0.00 66 1013.6
20260502193846 21 57 4.8 11.3 0.00 0.00 0.00 67 1013.8
20260502193346 21 22 6.4 12.9 0.00 0.00 0.00 67 1013.7
20260502192846 21 10 4.8 12.9 0.00 0.00 0.00 69 1013.7
20260502192346 21 54 3.2 11.3 0.00 0.00 0.00 70 1013.8
20260502191844 21 60 3.2 11.3 0.00 0.00 0.00 64 1013.9
20260502191344 20 12 3.2 11.3 0.00 0.00 0.00 72 1013.9
20260502190954 19 24 4.8 12.9 0.00 0.00 0.00 77 1014.1
20260502190848 20 5 4.8 11.3 0.00 0.00 0.00 75 1014.0
20260502190844 20 148 6.4 11.3 0.00 0.00 0.00 73 1013.9
20260502185343 18 5 4.8 14.5 0.00 0.00 0.00 80 1014.2
20260502184846 17 241 4.8 14.5 0.00 0.00 0.00 81 1014.2
20260502184842 18 0 3.2 14.5 0.00 0.00 0.00 81 1014.2
20260502183842 18 163 8.0 14.5 0.00 0.00 0.00 79 1014.4
20260502183342 18 14 6.4 14.5 0.00 0.00 0.00 81 1014.3
20260502182842 17 15 3.2 11.3 0.00 0.00 0.00 82 1014.2
20260502182346 17 198 1.6 12.9 0.00 0.00 0.00 82 1014.2
20260502182342 17 92 1.6 12.9 0.00 0.00 0.00 83 1014.3
20260502181341 17 155 3.2 12.9 0.00 0.00 0.00 83 1014.2
20260502180839 17 350 8.0 14.5 0.00 0.00 0.00 83 1014.2
20260502180340 16 19 9.7 14.5 0.00 0.00 0.00 84 1014.1
20260502170335 13 140 11.3 17.7 0.00 0.00 0.00 91 1014.4
20260502163835 15 215 4.8 9.7 0.00 0.00 0.00 85 1014.3
20260502163336 16 184 3.2 9.7 0.00 0.00 0.00 84 1014.4
20260502162835 16 64 1.6 6.4 0.00 0.00 0.00 86 1014.2
20260502162336 15 117 3.2 6.4 0.00 0.00 0.00 89 1014.3
20260502161836 15 41 1.6 6.4 0.00 0.00 0.00 92 1014.2
20260502161335 13 92 3.2 8.0 0.00 0.00 0.00 92 1014.2
20260502160839 13 202 1.6 8.0 0.00 0.00 0.00 91 1014.2
20260502160835 13 212 4.8 8.0 0.00 0.00 0.00 91 1014.2
20260502152333 16 129 1.6 9.7 0.00 0.00 0.00 83 1014.1
20260502151833 16 115 3.2 9.7 0.00 0.00 0.00 84 1014.2
20260502151334 16 38 4.8 14.5 0.00 0.00 0.00 83 1014.0
20260502150834 16 54 3.2 14.5 0.00 0.00 0.00 84 1014.0
20260502150333 15 40 3.2 12.9 0.00 0.00 0.00 87 1013.9
20260502130325 14 46 9.7 11.3 0.00 0.00 0.00 82 1013.2
20260502123324 15 109 8.0 12.9 0.00 0.00 0.00 80 1013.2
20260502122822 15 109 9.7 12.9 0.00 0.00 0.00 83 1013.1
20260502122322 15 104 8.0 12.9 0.00 0.00 0.00 82 1013.0
20260502121823 15 88 6.4 11.3 0.00 0.00 0.00 82 1012.9
20260502121322 15 107 6.4 11.3 0.00 0.00 0.00 82 1013.0
20260502120825 15 121 6.4 11.3 0.00 0.00 0.00 83 1012.9
20260502120821 15 93 6.4 11.3 0.00 0.00 0.00 81 1013.0
20260502120427 15 132 8.0 17.7 0.00 0.00 0.00 80 1013.0
20260502115322 15 129 9.7 17.7 0.00 0.00 0.00 81 1013.0
20260502114819 15 165 9.7 17.7 0.00 0.00 0.00 82 1013.0
20260502114318 15 123 9.7 17.7 0.00 0.00 0.00 80 1012.9
20260502113821 15 128 9.7 17.7 0.00 0.00 0.00 82 1012.8
20260502113817 15 128 8.0 14.5 0.00 0.00 0.00 82 1012.9
20260502112817 15 131 11.3 17.7 0.00 0.00 0.00 79 1012.9
20260502112317 15 116 11.3 12.9 0.00 0.00 0.00 79 1012.8
20260502111816 15 105 11.3 12.9 0.00 0.00 0.00 78 1012.9
20260502111317 15 98 9.7 14.5 0.00 0.00 0.00 80 1012.8
20260502110817 15 103 6.4 14.5 0.00 0.00 0.00 77 1012.8
20260502110317 15 84 6.4 14.5 0.00 0.00 0.00 78 1012.9
20260502105816 16 101 8.0 14.5 0.00 0.00 0.00 78 1012.8
20260502105316 16 101 9.7 14.5 0.00 0.00 0.00 77 1012.9
20260502104817 16 107 6.4 11.3 0.00 0.00 0.00 75 1012.8
20260502104321 17 39 6.4 9.7 0.00 0.00 0.00 71 1012.8
20260502104316 16 106 6.4 9.7 0.00 0.00 0.00 74 1012.8
20260502103316 17 54 6.4 11.3 0.00 0.00 0.00 64 1012.8
20260502102817 16 36 8.0 12.9 0.00 0.00 0.00 65 1012.8
20260502102320 16 28 8.0 14.5 0.00 0.00 0.00 69 1012.8
20260502102316 16 42 8.0 12.9 0.00 0.00 0.00 70 1012.8
20260502101316 17 41 8.0 14.5 0.00 0.00 0.00 70 1012.8
20260502100816 16 38 8.0 16.1 0.00 0.00 0.00 67 1012.8
20260502100317 16 56 8.0 16.1 0.00 0.00 0.00 75 1012.9
20260502091314 15 56 8.0 16.1 0.00 0.00 0.00 79 1013.0
20260502090814 15 49 4.8 16.1 0.00 0.00 0.00 79 1013.1
20260502090314 15 54 6.4 12.9 0.00 0.00 0.00 73 1013.0
20260502071306 19 304 0.0 0.0 0.00 0.00 0.00 48 1014.0
20260502070806 19 304 0.0 1.6 0.00 0.00 0.00 45 1014.0
20260502070306 19 304 0.0 1.6 0.00 0.00 0.00 45 1014.0
20260502065806 19 327 0.0 1.6 0.00 0.00 0.00 45 1014.1
20260502065311 19 339 0.0 3.2 0.00 0.00 0.00 45 1014.0
20260502065306 19 327 0.0 3.2 0.00 0.00 0.00 45 1014.1
20260502064913 19 331 0.0 1.6 0.00 0.00 0.00 44 1014.0
20260502063804 19 302 0.0 0.0 0.00 0.00 0.00 44 1014.0
20260502063305 19 302 0.0 0.0 0.00 0.00 0.00 43 1014.0
20260502062804 19 302 0.0 0.0 0.00 0.00 0.00 43 1014.0
20260502062308 19 302 0.0 1.6 0.00 0.00 0.00 42 1013.8
20260502062306 19 302 0.0 0.0 0.00 0.00 0.00 41 1013.9
20260502061302 20 302 1.6 4.8 0.00 0.00 0.00 42 1013.9
20260502060800 20 294 1.6 4.8 0.00 0.00 0.00 41 1013.9
20260502060304 20 259 0.0 3.2 0.00 0.00 0.00 43 1013.9
20260502060300 20 268 0.0 3.2 0.00 0.00 0.00 42 1013.8
20260502055305 20 261 4.8 9.7 0.00 0.00 0.00 41 1013.8
20260502055259 20 259 1.6 6.4 0.00 0.00 0.00 42 1013.8
20260502054300 19 278 3.2 9.7 0.00 0.00 0.00 41 1013.8
20260502053800 19 324 1.6 6.4 0.00 0.00 0.00 49 1013.8
20260502053259 19 318 1.6 4.8 0.00 0.00 0.00 45 1013.8
20260502052800 19 284 1.6 4.8 0.00 0.00 0.00 42 1013.9
20260502052259 19 279 0.0 3.2 0.00 0.00 0.00 44 1013.9
20260502051800 19 351 0.0 1.6 0.00 0.00 0.00 46 1013.9
20260502051303 19 257 0.0 1.6 0.00 0.00 0.00 51 1013.9
20260502051259 19 351 0.0 1.6 0.00 0.00 0.00 52 1013.9
20260502050258 19 219 0.0 1.6 0.00 0.00 0.00 55 1013.9
20260502045757 19 209 0.0 1.6 0.00 0.00 0.00 53 1013.8
20260502045257 19 202 0.0 4.8 0.00 0.00 0.00 55 1013.7
20260502044757 19 184 0.0 4.8 0.00 0.00 0.00 55 1013.7
20260502044257 19 161 0.0 0.0 0.00 0.00 0.00 57 1013.7
20260502043801 20 161 0.0 1.6 0.00 0.00 0.00 56 1013.7
20260502043757 19 161 0.0 1.6 0.00 0.00 0.00 57 1013.7
20260502042758 20 161 0.0 3.2 0.00 0.00 0.00 55 1013.6
20260502042255 20 161 0.0 3.2 0.00 0.00 0.00 55 1013.5
20260502041755 20 195 0.0 0.0 0.00 0.00 0.00 50 1013.5
20260502041256 20 195 0.0 0.0 0.00 0.00 0.00 45 1013.4
20260502040756 20 195 0.0 1.6 0.00 0.00 0.00 44 1013.2
20260502040255 20 195 0.0 1.6 0.00 0.00 0.00 47 1013.2
20260502035756 20 195 0.0 1.6 0.00 0.00 0.00 45 1013.2
20260502035255 20 195 1.6 4.8 0.00 0.00 0.00 45 1013.0
20260502034754 20 195 1.6 4.8 0.00 0.00 0.00 44 1012.9
20260502034254 20 227 0.0 4.8 0.00 0.00 0.00 40 1012.8
20260502033753 20 207 0.0 3.2 0.00 0.00 0.00 42 1012.8
20260502033403 21 244 8.0 14.5 0.00 0.00 0.00 37 1012.6
20260502033253 21 209 1.6 4.8 0.00 0.00 0.00 42 1012.8
20260502032757 21 255 6.4 14.5 0.00 0.00 0.00 36 1012.7
20260502032753 21 234 3.2 14.5 0.00 0.00 0.00 39 1012.7
20260502031256 21 276 9.7 11.3 0.00 0.00 0.00 37 1012.5
20260502031252 21 254 9.7 14.5 0.00 0.00 0.00 36 1012.6
20260502025148 21 252 6.4 11.3 0.00 0.00 0.00 37 1012.4
20260502025141 21 254 8.0 12.9 0.00 0.00 0.00 36 1012.5
20260502024143 21 265 8.0 14.5 0.00 0.00 0.00 39 1012.5
20260502023647 21 272 4.8 16.1 0.00 0.00 0.00 40 1012.5
20260502023643 21 264 4.8 14.5 0.00 0.00 0.00 40 1012.4
20260502022643 21 259 6.4 16.1 0.00 0.00 0.00 42 1012.4
20260502022138 21 269 6.4 16.1 0.00 0.00 0.00 37 1012.3
20260502021711 21 252 3.2 11.3 0.00 0.00 0.00 38 1012.4
20260502021126 21 220 1.6 6.4 0.00 0.00 0.00 45 1012.4
20260502020623 21 320 3.2 8.0 0.00 0.00 0.00 43 1012.3
20260502020123 21 318 1.6 8.0 0.00 0.00 0.00 46 1012.3
20260502015619 21 232 0.0 3.2 0.00 0.00 0.00 52 1012.3
20260502015119 21 235 0.0 4.8 0.00 0.00 0.00 56 1012.3
20260502014619 21 236 0.0 4.8 0.00 0.00 0.00 56 1012.3
20260502014126 21 185 0.0 4.8 0.00 0.00 0.00 65 1012.2
20260502014119 21 172 0.0 4.8 0.00 0.00 0.00 67 1012.4
20260502013119 21 333 0.0 4.8 0.00 0.00 0.00 63 1012.3
20260502012625 21 5 0.0 3.2 0.00 0.00 0.00 64 1012.3
20260502012619 21 333 0.0 4.8 0.00 0.00 0.00 64 1012.2
20260502011626 21 38 0.0 1.6 0.00 0.00 0.00 64 1012.3
20260502011619 21 41 0.0 1.6 0.00 0.00 0.00 64 1012.3
20260502011228 21 347 0.0 11.3 0.00 0.00 0.00 63 1012.2
20260502010125 21 323 3.2 11.3 0.00 0.00 0.00 61 1012.3
20260502010118 21 346 0.0 11.3 0.00 0.00 0.00 62 1012.3
20260502005116 21 274 4.8 12.9 0.00 0.00 0.00 61 1012.2
20260502004617 21 248 3.2 12.9 0.00 0.00 0.00 61 1012.3
20260502004115 21 260 3.2 12.9 0.00 0.00 0.00 64 1012.3
20260502003623 21 239 8.0 19.3 0.00 0.00 0.00 67 1012.3
20260502003615 21 293 6.4 17.7 0.00 0.00 0.00 67 1012.3
20260502003115 21 235 9.7 19.3 0.00 0.00 0.00 66 1012.3
20260502002117 20 254 12.9 20.9 0.00 0.00 0.00 68 1012.3
20260502002113 21 259 11.3 20.9 0.00 0.00 0.00 69 1012.3
20260502001112 20 273 14.5 20.9 0.00 0.00 0.00 67 1012.2
20260502000612 20 272 14.5 20.9 0.00 0.00 0.00 70 1012.2
20260502000113 20 273 12.9 22.5 0.00 0.00 0.00 69 1012.2
20260501235613 20 275 16.1 22.5 0.00 0.00 0.00 71 1012.3
20260501235111 20 266 16.1 22.5 0.00 0.00 0.00 71 1012.2
20260501234615 20 269 11.3 19.3 0.00 0.00 0.00 71 1012.3
20260501234611 20 274 12.9 20.9 0.00 0.00 0.00 71 1012.2
20260501234218 20 270 12.9 19.3 0.00 0.00 0.00 71 1012.3
20260501233719 20 309 12.9 22.5 0.00 0.00 0.00 73 1012.2
20260501233213 20 273 12.9 22.5 0.00 0.00 0.00 71 1012.3
20260501232719 18 290 6.4 14.5 0.00 0.00 0.00 77 1012.3
20260501232113 19 286 9.7 14.5 0.00 0.00 0.00 75 1012.2
20260501232109 20 316 11.3 17.7 0.00 0.00 0.00 74 1012.2
20260501231217 18 298 6.4 14.5 0.00 0.00 0.00 78 1012.2
20260501230108 18 248 8.0 14.5 0.00 0.00 0.00 77 1012.4
20260501225608 19 209 8.0 16.1 0.00 0.00 0.00 74 1012.4
20260501225108 20 252 9.7 19.3 0.00 0.00 0.00 71 1012.5
20260501224609 21 249 11.3 19.3 0.00 0.00 0.00 69 1012.5
20260501224109 21 269 9.7 17.7 0.00 0.00 0.00 70 1012.5
20260501223608 21 280 9.7 19.3 0.00 0.00 0.00 69 1012.6
20260501223109 21 251 11.3 20.9 0.00 0.00 0.00 69 1012.7
20260501222606 21 269 11.3 20.9 0.00 0.00 0.00 68 1012.7
20260501222106 20 302 11.3 19.3 0.00 0.00 0.00 71 1012.7
20260501221606 20 292 11.3 17.7 0.00 0.00 0.00 71 1012.8
20260501221107 20 288 11.3 20.9 0.00 0.00 0.00 71 1012.9
20260501220610 20 278 11.3 19.3 0.00 0.00 0.00 71 1013.0
20260501220606 20 273 12.9 20.9 0.00 0.00 0.00 71 1012.9
20260501215610 20 297 9.7 19.3 0.00 0.00 0.00 71 1013.2
20260501215606 20 250 9.7 19.3 0.00 0.00 0.00 72 1013.0
20260501214610 20 279 8.0 14.5 0.00 0.00 0.00 74 1013.2
20260501214606 20 267 9.7 16.1 0.00 0.00 0.00 73 1013.2